AWW69TG EGFF-LFMN

Flight info

Callsign AWW69TG
Flight time N/A
Altitude 35000
Route BCN P4 HAWFA DCT NUCHU L607 ALHAD DCT MID UL612 RESMI DCT KOTAP UM728 KETEX DCT KOTIS DCT KUKOR DCT UTUVA DCT LERGA DCT LIQID DCT LATAM DCT TUNUR DCT NISAR
Aircraft A319/M-SDE3FGHIRWY/LB1

Departure

Time 2026-05-07 16:07
Airport Cardiff International Airport (EGFF)

Arrival

Time N/A
Airport Nice-Côte d'Azur Airport (LFMN)
Time Latitude Longitude Altitude Speed Heading
2026-05-07 15:50 51.39837 -3.34064 222 ft 0 kts 81°
2026-05-07 16:01 51.39834 -3.34097 223 ft 4 kts 83°
2026-05-07 16:01 51.39830 -3.34140 224 ft 4 kts 82°
2026-05-07 16:01 51.39827 -3.34182 225 ft 4 kts 83°
2026-05-07 16:01 51.39823 -3.34225 225 ft 4 kts 85°
2026-05-07 16:02 51.39825 -3.34263 225 ft 2 kts 116°
2026-05-07 16:02 51.39826 -3.34264 225 ft 1 kts 117°
2026-05-07 16:04 51.39813 -3.34223 228 ft 11 kts 116°
2026-05-07 16:04 51.39771 -3.34088 224 ft 15 kts 117°
2026-05-07 16:04 51.39719 -3.33925 221 ft 17 kts 117°
2026-05-07 16:04 51.39662 -3.33747 222 ft 19 kts 117°
2026-05-07 16:05 51.39602 -3.33559 220 ft 18 kts 116°
2026-05-07 16:05 51.39545 -3.33374 220 ft 19 kts 117°
2026-05-07 16:05 51.39488 -3.33194 224 ft 18 kts 116°
2026-05-07 16:05 51.39417 -3.33028 220 ft 19 kts 133°
2026-05-07 16:06 51.39325 -3.32883 219 ft 20 kts 135°
2026-05-07 16:06 51.39239 -3.32793 217 ft 12 kts 188°
2026-05-07 16:06 51.39204 -3.32889 219 ft 10 kts 286°
2026-05-07 16:06 51.39239 -3.32999 225 ft 17 kts 296°
2026-05-07 16:07 51.39415 -3.33552 224 ft 92 kts 297°
2026-05-07 16:07 51.39798 -3.34768 227 ft 150 kts 297°
2026-05-07 16:07 51.40124 -3.35777 511 ft 156 kts 297°
2026-05-07 16:07 51.40789 -3.37939 1246 ft 168 kts 294°
2026-05-07 16:08 51.41145 -3.39075 1618 ft 175 kts 293°
2026-05-07 16:08 51.41854 -3.41476 2370 ft 187 kts 292°
2026-05-07 16:08 51.42429 -3.43426 2846 ft 201 kts 292°
2026-05-07 16:08 51.43090 -3.45549 3194 ft 228 kts 296°
2026-05-07 16:09 51.44144 -3.47665 3594 ft 258 kts 318°
2026-05-07 16:09 51.45176 -3.48702 3986 ft 273 kts 336°
2026-05-07 16:09 51.47080 -3.49172 4804 ft 285 kts
2026-05-07 16:09 51.48979 -3.48214 5836 ft 288 kts 30°
2026-05-07 16:10 51.50637 -3.46576 7145 ft 277 kts 33°
2026-05-07 16:10 51.52313 -3.44954 7924 ft 288 kts 31°
2026-05-07 16:10 51.54652 -3.42763 8963 ft 298 kts 31°
2026-05-07 16:10 51.56442 -3.41090 9940 ft 299 kts 30°
2026-05-07 16:11 51.58298 -3.39404 10433 ft 317 kts 30°
2026-05-07 16:11 51.59606 -3.38222 10650 ft 333 kts 30°
2026-05-07 16:11 51.61661 -3.36362 11203 ft 344 kts 30°
2026-05-07 16:11 51.63763 -3.34448 11959 ft 350 kts 30°
2026-05-07 16:12 51.65889 -3.32491 12733 ft 355 kts 31°
2026-05-07 16:12 51.67813 -3.29995 13462 ft 359 kts 50°
2026-05-07 16:12 51.69110 -3.26561 14159 ft 361 kts 71°
2026-05-07 16:12 51.69600 -3.21314 15027 ft 361 kts 97°
2026-05-07 16:13 51.69278 -3.18632 15471 ft 361 kts 110°
2026-05-07 16:13 51.68161 -3.15032 16132 ft 361 kts 124°
2026-05-07 16:13 51.66812 -3.11596 16799 ft 364 kts 125°
2026-05-07 16:13 51.65442 -3.08135 17451 ft 369 kts 125°
2026-05-07 16:14 51.64070 -3.04674 17938 ft 378 kts 125°
2026-05-07 16:14 51.62623 -3.01027 18071 ft 395 kts 124°
2026-05-07 16:14 51.61115 -2.97218 18236 ft 411 kts 124°
2026-05-07 16:14 51.59569 -2.93295 18592 ft 419 kts 124°
2026-05-07 16:15 51.58019 -2.89300 19053 ft 422 kts 123°
2026-05-07 16:15 51.56474 -2.85262 19499 ft 426 kts 123°
2026-05-07 16:15 51.54949 -2.81248 19956 ft 429 kts 123°
2026-05-07 16:15 51.53368 -2.77088 20431 ft 431 kts 123°
2026-05-07 16:16 51.51819 -2.73026 20891 ft 434 kts 123°
2026-05-07 16:16 51.50234 -2.68890 21341 ft 436 kts 123°
2026-05-07 16:16 51.48638 -2.64739 21782 ft 439 kts 123°
2026-05-07 16:16 51.47026 -2.60558 22212 ft 442 kts 123°
2026-05-07 16:17 51.45404 -2.56358 22636 ft 444 kts 123°
2026-05-07 16:17 51.43771 -2.52135 23051 ft 447 kts 123°
2026-05-07 16:17 51.42123 -2.47890 23476 ft 450 kts 123°
2026-05-07 16:17 51.40465 -2.43628 23835 ft 452 kts 123°
2026-05-07 16:18 51.38799 -2.39340 24177 ft 455 kts 123°
2026-05-07 16:18 51.37124 -2.35029 24487 ft 458 kts 124°
2026-05-07 16:18 51.35435 -2.30695 24811 ft 461 kts 124°
2026-05-07 16:18 51.33754 -2.26395 25130 ft 463 kts 124°
2026-05-07 16:19 51.32042 -2.22020 25448 ft 465 kts 124°
2026-05-07 16:19 51.30324 -2.17633 25778 ft 466 kts 124°
2026-05-07 16:19 51.28599 -2.13236 26116 ft 467 kts 124°
2026-05-07 16:19 51.26869 -2.08831 26435 ft 469 kts 124°
2026-05-07 16:20 51.25129 -2.04413 26735 ft 471 kts 124°
2026-05-07 16:20 51.23379 -1.99975 27027 ft 473 kts 124°
2026-05-07 16:20 51.21621 -1.95524 27313 ft 475 kts 124°
2026-05-07 16:20 51.19852 -1.91060 27590 ft 477 kts 124°
2026-05-07 16:21 51.18096 -1.86641 27806 ft 480 kts 124°
2026-05-07 16:21 51.16306 -1.82144 28136 ft 481 kts 124°
2026-05-07 16:21 51.14518 -1.77655 28537 ft 480 kts 124°
2026-05-07 16:21 51.12729 -1.73170 28955 ft 479 kts 124°
2026-05-07 16:22 51.10942 -1.68698 29374 ft 478 kts 124°
2026-05-07 16:22 51.09157 -1.64236 29824 ft 478 kts 124°
2026-05-07 16:22 51.07373 -1.59781 30237 ft 477 kts 124°
2026-05-07 16:22 51.05593 -1.55342 30605 ft 476 kts 124°
2026-05-07 16:23 51.03813 -1.50910 30971 ft 475 kts 125°
2026-05-07 16:23 51.02056 -1.46547 31339 ft 475 kts 125°